STARLINK-34488

Last updated on Sat Jul 19 2025 00:02:07 GMT+0000 (Coordinated Universal Time)

1 64604U 25137L 25199.58335648 -.01534988 00000+0 -16359-1 0 9990 2 64604 53.1592 355.2798 0000889 107.9371 274.4036 15.66251624 4759
UTC large
Height (km)
Speed (km/s)
/
Latitude / Longitude
Inclination (degrees)
Orbital Period (minutes)
Azimuth
Elevation
Range (km)
Doppler Factor

Next 0 passes for location: London (51.5072 / 0.1276)

Sorry there are no passes over London.